Regional Weather Roundup
Issued by NWS Newport/Morehead, NC

Home | Current Version | Previous Version | Text Only | Print | Product List | Glossary On
Versions: 1 2 3 4 5 6 7 8 9 10 11 12 13 14 15 16 17 18 19 20 21 22 23 24 25 26 27 28 29 30 31 32 33 34 35 36 37 38 39 40 41 42 43 44 45 46 47 48 49 50
000
ASUS42 KMHX 241022
RWRMHX
WEATHER ROUNDUP FOR EASTERN NORTH CAROLINA
NATIONAL WEATHER SERVICE NEWPORT/MOREHEAD CITY NC
600 AM EDT FRI OCT 24 2014

NOTE: "FAIR" INDICATES FEW OR NO CLOUDS BELOW 12,000 FEET
WITH NO SIGNIFICANT WEATHER AND/OR OBSTRUCTIONS TO VISIBILITY

NCZ015>017-031-032-045>047-102-103-241100-
NORTH COAST

CITY           SKY/WX    TMP DP  RH WIND       PRES   REMARKS
EDENTON        PTCLDY    51  45  78 NW8       29.98R
ELIZABETH CITY PTCLDY    50  43  77 W9        29.96R
KITTY HAWK     MOSUNNY   55  46  72 NW10G16   29.94R
MANTEO         PTCLDY    56  47  71 NW8       29.96R

$$

NCZ045>047-081-094-103-104-241100-
CENTRAL COAST

CITY           SKY/WX    TMP DP  RH WIND       PRES   REMARKS
FRISCO         PTCLDY    57  49  74 NW12G22   29.95R
SWANQUARTER    NOT AVBL

$$

NCZ095-097-098-100-101-241100-
SOUTHERN COAST

CITY           SKY/WX    TMP DP  RH WIND       PRES   REMARKS
BEAUFORT       CLEAR     53  47  79 N9        29.98R
CEDAR ISLAND   NOT AVBL
JACKSONVILLE   CLEAR     45  44  97 W5        29.99S
PINEY ISLAND   SUNNY     58  48  69 NW10      29.97R
WILMINGTON     MOCLDY    49  45  86 NW5       30.00R


$$

NCZ011>013-027>030-043-044-078>080-089-090>093-098-241100-
COASTAL PLAIN

CITY           SKY/WX    TMP DP  RH WIND       PRES   REMARKS
AHOSKIE        PTCLDY    46  42  87 CALM      30.00R
CLINTON        PTCLDY    47  46  95 CALM      30.01S
ELIZABETHTOWN  MOCLDY    49  43  80 CALM      30.01S
GOLDSBORO      PTCLDY    48  47  97 NW2       29.99S
GREENVILLE     CLEAR     48  45  87 CALM      30.01S
HAVELOCK       CLEAR     47  44  90 CALM      30.00R
KENANSVILLE    CLEAR     47  43  87 CALM      30.02R
KINSTON        CLEAR     44  43  97 CALM      30.01S
NEW BERN       CLEAR     48  44  86 CALM      30.00R
RICHLANDS      CLEAR     43  39  87 CALM      30.00S
ROCKY MOUNT    CLEAR     49  42  77 NW5       30.01R
WASHINGTON     CLEAR     47  44  88 CALM      30.00R
WHITEVILLE     MOCLDY    48  44  85 CALM      30.01S

$$

AMZ130-135-150-152-154-156-158-170-250-252-270-ANZ085-086-088-633-658-670-241100-
MARINE OBSERVATIONS

STATION/POSITION TIME  TEMP    WIND        PRES    WAVE   SWELL
                       AIR SEA DIR/SP/G            HT/PER HT/PER
                 (UTC) (F)     (DEG/KT/KT) (MB)    (FT/S) (FT/S)
CHESAPEAKE LIGHT 1000   59     330/ 22/ 24 1013.5
64 E VA BEACH    1000   62 66  300/ 17/ 21 1011.4    6/ 7   2/15
DUCK             1000   54 66  300/ 13/ 16 1013.0
2 E DUCK         1000                        N/A     4/ 8
10 NE DUCK       1000      68                N/A     5/ 8
OREGON INLET     1000   57 65  310/ 10/ 15 1013.7
13E OREGON INLT  1000      70                N/A     6/ 7   2/11
HATTERAS CG      1000   60 64  320/ 19/ 21 1014.4
DIAMOND BUOY     1000   62     320/ 17/ 23 1013.6    5/ 4   2/11
17 S OCRACOKE    NOT AVBL
CAPE LOOKOUT     1000   57     340/ 12/ 14 1015.0
BEAUFORT LAB     1000   56 66  360/  8/ 11 1014.5
30 SE NEW RIVER  1000   65 75   10/ 14/ 16 1014.1    4/10   3/10
5 SE WRIGHTSVLE  1000   55 71  350/ 12/ 14   N/A
225 S CAPE HAT   0855   72 77  310/  8/ 12 1014.5    6/10   5/10
41 SE CHARLESTON 1000   68 78  360/ 12/ 16 1015.2    3/11   3/11

$$



USA.gov is the U.S. government's official web portal to all federal, state and local government web resources and services.